Location: Dob?e?
(49.9411°N, 15.1496°E)
Time: 19:37:00
(UTC+00:00)

DELFI C3 - Pass Details

Date: 28 October 2021
Orbit: 529 x 543 km, 97.4° (Epoch: 04 December)

Event Time Altitude Azimuth Distance (km) Brightness Sun altitude
Exits shadow 16:23:31 - 75° (ENE) 1,864 ? -7.1°
Reaches altitude 10° 16:24:30 10° 61° (ENE) 1,786 ? -7.2°
Maximum altitude 16:24:46 10° 57° (ENE) 1,783 ? -7.3°
Drops below altitude 10° 16:25:02 10° 53° (NE) 1,787 ? -7.3°
Sets 16:29:20 0° 6° (N) 2,688 ? -8.0°
